Location: Esterri de Aneo
(42.6284°N, 1.1223°E)
Time: 21:50:31
(UTC+00:00)

ARIANE 5 R/B - Pass Details

Date: 11 December 2025
Orbit: 747 x 792 km, 98.8° (Epoch: 21 January)

Event Time Altitude Azimuth Distance (km) Brightness Sun altitude
Rises 17:15:39 0° 156° (SSE) 3,201 5.7 -9.6°
Reaches altitude 10° 17:17:56 10° 154° (SSE) 2,286 4.9 -10.0°
Maximum altitude 17:22:55 66° 73° (ENE) 837 2.5 -10.9°
Drops below altitude 10° 17:28:01 10° 352° (N) 2,332 4.9 -11.7°
Sets 17:30:22 0° 349° (N) 3,271 5.7 -12.1°
